When you browse on this site, cookies collect data to enhance your experience and personalize the content and advertising you see.
Visit our Privacy Policy to learn more. By continuing to use the site, you agree to this use of cookies and data.
  • In Romania
  • List of Countries
  • For 7 days
  • Water Temperature
  • Satellite Maps
  • Weather Map
  • Weather Widgets
  • user-avatar
    Login

    Hourly Weather Arneburg

    Today, 18 July, Thursday

    Time Temperature Precipitation Wind Pressure Humidity
    00:00 +16°C° 0 mm 2 mps 757 mmHg 89%
    01:00 +15°C° 0 mm 2 mps 757 mmHg 92%
    02:00 +14°C° 0 mm 2 mps 757 mmHg 92%
    03:00 +14°C° 0 mm 2 mps 757 mmHg 92%
    04:00 +14°C° 0 mm 1 mps 757 mmHg 92%
    05:00 +15°C° 0 mm 2 mps 757 mmHg 88%
    06:00 +16°C° 0 mm 2 mps 757 mmHg 83%
    07:00 +18°C° 0 mm 2 mps 757 mmHg 79%
    08:00 +20°C° 0 mm 2 mps 757 mmHg 70%
    09:00 +23°C° 0 mm 2 mps 757 mmHg 62%
    10:00 +24°C° 0 mm 2 mps 756 mmHg 53%
    11:00 +25°C° 0 mm 2 mps 756 mmHg 50%
    12:00 +25°C° 0 mm 2 mps 756 mmHg 48%
    13:00 +26°C° 0 mm 2 mps 756 mmHg 46%
    14:00 +26°C° 0 mm 2 mps 756 mmHg 47%
    15:00 +26°C° 0 mm 2 mps 756 mmHg 48%
    16:00 +26°C° 0 mm 2 mps 756 mmHg 50%
    17:00 +25°C° 0 mm 1 mps 755 mmHg 53%
    18:00 +24°C° 0 mm 1 mps 755 mmHg 56%
    19:00 +24°C° 0 mm 1 mps 755 mmHg 60%
    20:00 +22°C° 0 mm 1 mps 755 mmHg 62%
    21:00 +21°C° 0 mm 1 mps 756 mmHg 65%
    22:00 +20°C° 0 mm 1 mps 756 mmHg 68%
    23:00 +19°C° 0 mm 1 mps 756 mmHg 70%

    Tomorrow, 19 July, Friday

    Time Temperature Precipitation Wind Pressure Humidity
    00:00 +19°C° 0 mm 1 mps 756 mmHg 71%
    01:00 +19°C° 0 mm 1 mps 756 mmHg 73%
    02:00 +19°C° 0 mm 1 mps 756 mmHg 73%
    03:00 +19°C° 0 mm 1 mps 756 mmHg 74%
    04:00 +17°C° 0 mm 2 mps 756 mmHg 74%
    05:00 +19°C° 0 mm 1 mps 756 mmHg 75%
    06:00 +20°C° 0 mm 1 mps 756 mmHg 75%
    07:00 +20°C° 0 mm 1 mps 756 mmHg 76%
    08:00 +20°C° 0.1 mm 2 mps 757 mmHg 73%
    09:00 +21°C° 0.1 mm 2 mps 757 mmHg 70%
    10:00 +23°C° 0.1 mm 2 mps 757 mmHg 67%
    11:00 +24°C° 0.4 mm 3 mps 757 mmHg 65%
    12:00 +25°C° 0.4 mm 3 mps 757 mmHg 63%
    13:00 +26°C° 0.4 mm 3 mps 756 mmHg 61%
    14:00 +26°C° 0.5 mm 3 mps 756 mmHg 61%
    15:00 +26°C° 0.5 mm 3 mps 757 mmHg 61%
    16:00 +26°C° 0.5 mm 2 mps 757 mmHg 60%
    17:00 +25°C° 0.2 mm 2 mps 757 mmHg 64%
    18:00 +24°C° 0.2 mm 2 mps 757 mmHg 68%
    19:00 +24°C° 0.2 mm 1 mps 757 mmHg 73%
    20:00 +22°C° 0 mm 1 mps 757 mmHg 77%
    21:00 +21°C° 0 mm 1 mps 757 mmHg 82%
    22:00 +19°C° 0 mm 1 mps 758 mmHg 87%
    23:00 +19°C° 0 mm 1 mps 758 mmHg 89%

    Day after tomorrow, 20 July, Saturday

    Time Temperature Precipitation Wind Pressure Humidity
    00:00 +18°C° 0 mm 1 mps 758 mmHg 90%
    01:00 +16°C° 0 mm 0 mps 758 mmHg 91%
    02:00 +16°C° 0 mm 0 mps 758 mmHg 92%
    03:00 +16°C° 0 mm 1 mps 758 mmHg 92%
    04:00 +16°C° 0 mm 1 mps 758 mmHg 92%
    05:00 +19°C° 0 mm 1 mps 758 mmHg 88%
    06:00 +20°C° 0 mm 1 mps 758 mmHg 84%
    07:00 +21°C° 0 mm 1 mps 758 mmHg 80%
    08:00 +23°C° 0 mm 2 mps 758 mmHg 73%
    09:00 +25°C° 0 mm 3 mps 758 mmHg 65%
    10:00 +26°C° 0 mm 3 mps 758 mmHg 58%
    11:00 +27°C° 0 mm 4 mps 758 mmHg 55%
    12:00 +28°C° 0 mm 4 mps 757 mmHg 52%
    13:00 +29°C° 0 mm 4 mps 757 mmHg 48%
    14:00 +29°C° 0.6 mm 4 mps 757 mmHg 53%
    15:00 +28°C° 0.6 mm 4 mps 757 mmHg 57%
    16:00 +28°C° 0.6 mm 5 mps 756 mmHg 62%
    17:00 +27°C° 0.2 mm 4 mps 756 mmHg 67%
    18:00 +26°C° 0.2 mm 3 mps 756 mmHg 72%
    19:00 +25°C° 0.2 mm 2 mps 756 mmHg 77%
    20:00 +24°C° 0 mm 2 mps 756 mmHg 82%
    21:00 +21°C° 0 mm 2 mps 757 mmHg 86%
    22:00 +21°C° 0 mm 1 mps 757 mmHg 90%
    23:00 +21°C° 0.1 mm 1 mps 757 mmHg 91%

    21 July, Sunday

    Time Temperature Precipitation Wind Pressure Humidity
    00:00 +20°C° 0.1 mm 1 mps 757 mmHg 92%
    01:00 +20°C° 0.1 mm 1 mps 757 mmHg 93%
    02:00 +17°C° 0.1 mm 0 mps 757 mmHg 93%
    03:00 +17°C° 0.1 mm 0 mps 757 mmHg 93%
    04:00 +17°C° 0.1 mm 0 mps 757 mmHg 94%
    05:00 +20°C° 0.2 mm 1 mps 757 mmHg 91%
    06:00 +20°C° 0.2 mm 3 mps 758 mmHg 88%
    07:00 +21°C° 0.2 mm 4 mps 758 mmHg 85%
    08:00 +22°C° 0.1 mm 4 mps 759 mmHg 78%
    09:00 +23°C° 0.1 mm 5 mps 759 mmHg 70%
    10:00 +25°C° 0.1 mm 5 mps 759 mmHg 63%
    11:00 +26°C° 0 mm 5 mps 760 mmHg 59%
    12:00 +27°C° 0 mm 5 mps 760 mmHg 55%
    13:00 +28°C° 0 mm 5 mps 760 mmHg 52%
    14:00 +28°C° 0 mm 5 mps 760 mmHg 51%
    15:00 +28°C° 0 mm 5 mps 760 mmHg 50%
    16:00 +28°C° 0 mm 5 mps 761 mmHg 49%
    17:00 +27°C° 0 mm 5 mps 761 mmHg 55%
    18:00 +25°C° 0 mm 4 mps 761 mmHg 60%
    19:00 +24°C° 0 mm 3 mps 762 mmHg 66%
    20:00 +22°C° 0 mm 3 mps 762 mmHg 73%
    21:00 +20°C° 0 mm 3 mps 763 mmHg 80%
    22:00 +19°C° 0 mm 3 mps 763 mmHg 87%
    23:00 +18°C° 0 mm 3 mps 763 mmHg 90%

    22 July, Monday

    Time Temperature Precipitation Wind Pressure Humidity
    00:00 +17°C° 0 mm 3 mps 764 mmHg 93%
    01:00 +16°C° 0 mm 2 mps 764 mmHg 95%
    02:00 +16°C° 0 mm 2 mps 764 mmHg 96%
    03:00 +15°C° 0 mm 2 mps 764 mmHg 96%
    04:00 +15°C° 0 mm 2 mps 764 mmHg 97%
    05:00 +16°C° 0 mm 2 mps 765 mmHg 91%
    06:00 +17°C° 0 mm 2 mps 765 mmHg 85%
    07:00 +18°C° 0 mm 3 mps 765 mmHg 79%
    08:00 +19°C° 0 mm 3 mps 765 mmHg 71%
    09:00 +20°C° 0 mm 3 mps 765 mmHg 62%
    10:00 +22°C° 0 mm 3 mps 766 mmHg 53%
    11:00 +24°C° 0 mm 3 mps 766 mmHg 50%
    12:00 +25°C° 0 mm 3 mps 766 mmHg 46%
    13:00 +26°C° 0 mm 3 mps 766 mmHg 42%
    14:00 +26°C° 0 mm 2 mps 765 mmHg 41%
    15:00 +27°C° 0 mm 2 mps 765 mmHg 40%
    16:00 +27°C° 0 mm 2 mps 765 mmHg 39%
    17:00 +26°C° 0 mm 2 mps 765 mmHg 45%
    18:00 +25°C° 0 mm 1 mps 765 mmHg 51%
    19:00 +24°C° 0 mm 1 mps 765 mmHg 56%
    20:00 +23°C° 0 mm 1 mps 765 mmHg 61%
    21:00 +20°C° 0 mm 2 mps 766 mmHg 66%
    22:00 +19°C° 0 mm 2 mps 766 mmHg 71%
    23:00 +18°C° 0 mm 2 mps 766 mmHg 74%

    23 July, Tuesday

    Time Temperature Precipitation Wind Pressure Humidity
    00:00 +17°C° 0 mm 2 mps 766 mmHg 77%
    01:00 +17°C° 0 mm 2 mps 766 mmHg 81%
    02:00 +16°C° 0 mm 2 mps 766 mmHg 82%
    03:00 +16°C° 0 mm 2 mps 765 mmHg 84%
    04:00 +16°C° 0 mm 1 mps 765 mmHg 85%
    05:00 +17°C° 0 mm 2 mps 765 mmHg 80%
    06:00 +19°C° 0 mm 2 mps 765 mmHg 75%
    07:00 +20°C° 0 mm 2 mps 765 mmHg 70%
    08:00 +23°C° 0 mm 2 mps 765 mmHg 63%
    09:00 +25°C° 0 mm 2 mps 765 mmHg 56%
    10:00 +26°C° 0 mm 2 mps 765 mmHg 49%
    11:00 +28°C° 0 mm 2 mps 765 mmHg 46%
    12:00 +29°C° 0 mm 2 mps 764 mmHg 42%
    13:00 +30°C° 0 mm 1 mps 764 mmHg 38%
    14:00 +30°C° 0 mm 2 mps 764 mmHg 37%
    15:00 +31°C° 0 mm 2 mps 763 mmHg 37%
    16:00 +31°C° 0 mm 2 mps 763 mmHg 36%
    17:00 +30°C° 0 mm 2 mps 763 mmHg 41%
    18:00 +29°C° 0 mm 2 mps 763 mmHg 46%
    19:00 +27°C° 0 mm 2 mps 763 mmHg 51%
    20:00 +26°C° 0 mm 2 mps 763 mmHg 55%
    21:00 +24°C° 0 mm 2 mps 763 mmHg 60%
    22:00 +21°C° 0 mm 3 mps 763 mmHg 64%
    23:00 +21°C° 0 mm 3 mps 763 mmHg 68%
    Show more